EW4719 Weather Reports


Display with metric or nautical units.
time (UTC)temp
F
wind
direction
speed
MPH
gust
MPH
rain 1hr
in
rain 24hr
in
rain mn
in
humidity
%
barometer
mb
20260506113127 50 74 5.0 11.0 0.00 0.00 0.00 64 1016.3
20260506111503 49 68 3.0 8.0 0.00 0.00 0.00 67 1016.4
20260506110045 48 148 1.0 6.0 0.00 0.00 0.00 67 1016.5
20260506104541 49 78 5.0 11.0 0.00 0.00 0.00 65 1016.6
20260506103114 48 114 2.0 8.0 0.00 0.00 0.00 65 1016.7
20260506101552 48 148 3.0 10.0 0.00 0.00 0.00 61 1016.7
20260506100101 48 114 1.0 7.0 0.00 0.00 0.00 63 1016.8
20260506094604 46 33 3.0 9.0 0.00 0.00 0.00 68 1016.9
20260506093114 46 82 4.0 9.0 0.00 0.00 0.00 68 1017.0
20260506091608 47 101 0.0 8.0 0.00 0.00 0.00 62 1017.0
20260506090120 46 124 1.0 9.0 0.00 0.00 0.00 66 1017.1
20260506084507 45 74 0.0 3.0 0.00 0.00 0.00 70 1017.2
20260506083008 44 69 2.0 8.0 0.00 0.00 0.00 69 1017.3
20260506081542 44 53 1.0 5.0 0.00 0.00 0.00 69 1017.4
20260506073102 42 68 0.0 3.0 0.00 0.00 0.00 72 1017.4
20260506071546 42 69 2.0 5.0 0.00 0.00 0.00 73 1017.4
20260506061554 40 76 0.0 3.0 0.00 0.00 0.00 75 1017.3
20260506050124 36 76 0.0 0.0 0.00 0.00 0.00 79 1017.3
20260506044606 37 76 0.0 1.0 0.00 0.00 0.00 79 1017.3
20260506043129 37 76 0.0 0.0 0.00 0.00 0.00 78 1017.2
20260506041524 37 76 0.0 1.0 0.00 0.00 0.00 78 1017.1
20260506040106 38 76 0.0 0.0 0.00 0.00 0.00 78 1017.1
20260506034601 38 76 0.0 0.0 0.00 0.00 0.00 78 1017.1
20260506033127 38 76 0.0 0.0 0.00 0.00 0.00 78 1017.2
20260506031522 38 76 0.0 0.0 0.00 0.00 0.00 79 1017.3
20260506030057 38 76 0.0 1.0 0.00 0.00 0.00 79 1017.4
20260506024557 38 76 0.0 0.0 0.00 0.00 0.00 80 1017.4
20260506023117 38 76 0.0 0.0 0.00 0.00 0.00 79 1017.4
20260506021518 38 76 0.0 1.0 0.00 0.00 0.00 79 1017.3
20260506020132 38 76 0.0 2.0 0.00 0.00 0.00 79 1017.4
20260506014530 39 76 0.0 2.0 0.00 0.00 0.00 79 1017.5
20260506013014 39 76 0.0 0.0 0.00 0.00 0.00 80 1017.6
20260506011602 38 76 0.0 1.0 0.00 0.00 0.00 81 1017.7
20260506010121 38 76 0.0 1.0 0.00 0.00 0.00 81 1017.8
20260506004527 38 76 0.0 1.0 0.00 0.00 0.00 81 1017.8
20260506003053 39 76 0.0 1.0 0.00 0.00 0.00 81 1017.8
20260506001553 39 76 0.0 1.0 0.00 0.00 0.00 80 1017.8
20260506000123 39 76 0.0 2.0 0.00 0.00 0.00 80 1017.6
20260505234502 39 76 0.0 1.0 0.00 0.00 0.00 79 1017.8
20260505233006 39 76 0.0 1.0 0.00 0.00 0.00 79 1017.8
20260505231552 40 76 0.0 2.0 0.00 0.00 0.00 79 1017.8
20260505230101 40 102 0.0 2.0 0.00 0.00 0.00 79 1017.9
20260505224553 40 98 0.0 1.0 0.00 0.00 0.00 78 1018.0
20260505223118 40 79 0.0 3.0 0.00 0.00 0.00 78 1017.9
20260505221504 41 85 0.0 2.0 0.00 0.00 0.00 77 1018.2
20260505220125 41 75 0.0 3.0 0.00 0.00 0.00 77 1018.1
20260505214546 41 67 0.0 3.0 0.00 0.00 0.00 76 1018.0
20260505213101 41 64 1.0 6.0 0.00 0.00 0.00 75 1017.9
20260505211541 41 87 1.0 5.0 0.00 0.00 0.00 75 1017.9
20260505204600 42 61 2.0 6.0 0.00 0.00 0.00 74 1017.9
20260505203130 42 105 1.0 6.0 0.00 0.00 0.00 74 1017.8
20260505201534 42 54 1.0 8.0 0.00 0.00 0.00 74 1017.9
20260505200018 42 66 0.0 7.0 0.00 0.00 0.00 73 1017.8
20260505194557 42 53 2.0 8.0 0.00 0.00 0.00 73 1017.7
20260505193125 42 157 3.0 9.0 0.00 0.00 0.00 72 1017.7
20260505191512 43 83 3.0 9.0 0.00 0.00 0.00 71 1017.6
20260505190007 43 71 1.0 10.0 0.00 0.00 0.00 70 1017.6
20260505184544 43 63 5.0 12.0 0.00 0.00 0.00 69 1017.5
20260505183108 43 67 5.0 13.0 0.00 0.00 0.00 69 1017.5
20260505181604 43 333 3.0 12.0 0.00 0.00 0.00 69 1017.3
20260505180129 44 72 3.0 10.0 0.00 0.00 0.00 68 1017.5
20260505174528 44 95 3.0 13.0 0.00 0.00 0.00 68 1017.3
20260505173018 44 57 2.0 12.0 0.00 0.00 0.00 70 1017.4
20260505171553 44 73 4.0 13.0 0.00 0.00 0.00 70 1017.4
20260505170114 45 80 4.0 11.0 0.00 0.00 0.00 72 1017.3
20260505164502 45 64 4.0 9.0 0.00 0.00 0.00 70 1017.3
20260505163009 45 76 4.0 13.0 0.00 0.00 0.00 72 1017.2
20260505161536 45 73 2.0 13.0 0.00 0.00 0.00 71 1017.2
20260505153122 45 44 3.0 14.0 0.00 0.00 0.00 73 1017.2
20260505151531 46 30 5.0 13.0 0.00 0.00 0.00 74 1017.1
20260505140135 45 92 6.0 13.0 0.00 0.00 0.00 78 1016.9
20260505130133 45 70 4.0 13.0 0.00 0.00 0.00 78 1016.9
20260505123058 45 55 6.0 17.0 0.00 0.00 0.00 76 1016.7
20260505121558 46 74 8.0 15.0 0.00 0.00 0.00 76 1016.6
20260505120112 46 93 10.0 22.0 0.00 0.00 0.00 75 1016.5
20260505114501 46 61 9.0 21.0 0.00 0.00 0.00 77 1016.3